Weather History for KGRB - January, 2013

Change the Weather History Date:

Sunday, January 20, 2013

  Actual Average Record
Temperature  
Mean Temperature 10 °F 16 °F  
Max Temperature 14 °F 24 °F 47 °F (1906)
Min Temperature 5 °F 9 °F -25 °F (1985)
Degree Days  
Heating Degree Days 55 49  
Month to date heating degree days 872 970  
Since 1 July heating degree days 3623 4060  
Cooling Degree Days 0 0  
Month to date cooling degree days 0 0  
Year to date cooling degree days 0 0  
Moisture  
Dew Point -3 °F    
Average Humidity 59    
Maximum Humidity 69    
Minimum Humidity 48    
Precipitation  
Precipitation 0.00 in 0.04 in 0.84 in (1974)
Month to date precipitation 0.55 0.76  
Year to date precipitation 0.55 0.76  
Snow  
Snow 0.00 in 0.50 in 6.00 in (1982)
Month to date snowfall 1.2 8.3  
Since 1 July snowfall 25.5 25.6  
Snow Depth T in    
Sea Level Pressure  
Sea Level Pressure 30.21 in    
Wind  
Wind Speed 16 mph (WNW)    
Max Wind Speed 33 mph    
Max Gust Speed 46 mph    
Visibility 10 miles    
Events      
T = Trace of Precipitation, MM = Missing Value Source: NWS Daily Summary

Daily Weather History Graph

Daily Weather History Graph

Search for Another Location

Airport or City:

Trip Planner

Search our weather history database for the weather conditions in past years. The results will help you decide how hot, cold, wet, or windy it might be!

Date:

Astronomy

Jan. 20, 2013 Rise Set
Actual Time 7:22 AM CST 4:45 PM CST
Civil Twilight 6:50 AM CST 5:17 PM CST
Nautical Twilight 6:14 AM CST 5:53 PM CST
Astronomical Twilight 5:39 AM CST 6:27 PM CST
Moon 11:47 AM CST (1/20) 1:52 AM CST (1/20)
Length of Visible Light 10h 27m
Length of Day
9h 23m
Waxing Gibbous, 66% of the Moon is Illuminated
Jan 20
Waxing Gibbous
Jan 26
Full
Feb 3
Last Quarter
Feb 10
New
Feb 17
First Quarter

Hourly Weather History & Observations

Time (CST) Temp. Windchill Dew Point Humidity Pressure Visibility Wind Dir Wind Speed Gust Speed Precip Events Conditions
12:53 AM 10.9 °F -9.2 °F -2.0 °F 56% 29.95 in 10.0 mi WNW 24.2 mph 42.6 mph N/A   Mostly Cloudy
1:53 AM 10.0 °F -11.1 °F -2.9 °F 56% 30.00 in 10.0 mi WNW 26.5 mph 32.2 mph N/A   Mostly Cloudy
2:53 AM 9.0 °F -9.5 °F -2.9 °F 59% 30.05 in 10.0 mi WNW 18.4 mph 27.6 mph N/A   Clear
3:53 AM 8.1 °F -9.6 °F -2.9 °F 61% 30.09 in 10.0 mi WNW 16.1 mph 26.5 mph N/A   Clear
4:53 AM 8.1 °F -9.0 °F -2.9 °F 61% 30.12 in 10.0 mi WNW 15.0 mph 24.2 mph N/A   Clear
5:53 AM 7.0 °F -12.1 °F -2.9 °F 64% 30.16 in 10.0 mi West 18.4 mph 25.3 mph N/A   Clear
6:53 AM 6.1 °F -12.8 °F -4.0 °F 63% 30.20 in 10.0 mi WNW 17.3 mph - N/A   Clear
7:53 AM 5.0 °F -13.6 °F -4.0 °F 66% 30.24 in 10.0 mi WNW 16.1 mph 24.2 mph N/A   Clear
8:53 AM 6.1 °F -13.8 °F -4.0 °F 63% 30.27 in 10.0 mi WNW 19.6 mph 27.6 mph N/A   Clear
9:53 AM 8.1 °F -9.0 °F -2.9 °F 61% 30.28 in 10.0 mi WNW 15.0 mph - N/A   Clear
10:53 AM 9.0 °F -8.5 °F -2.9 °F 59% 30.29 in 10.0 mi WNW 16.1 mph 20.7 mph N/A   Clear
11:53 AM 10.0 °F -7.1 °F -2.0 °F 58% 30.28 in 10.0 mi West 16.1 mph - N/A   Clear
12:53 PM 12.0 °F -2.7 °F -0.9 °F 56% 30.27 in 10.0 mi West 12.7 mph - N/A   Clear
1:53 PM 12.9 °F -3.9 °F -2.0 °F 51% 30.25 in 10.0 mi WNW 17.3 mph - N/A   Clear
2:53 PM 12.9 °F -3.4 °F -4.0 °F 47% 30.25 in 10.0 mi NW 16.1 mph - N/A   Mostly Cloudy
3:53 PM 12.9 °F -2.2 °F -4.0 °F 47% 30.25 in 10.0 mi WNW 13.8 mph - N/A   Scattered Clouds
4:53 PM 10.9 °F -4.1 °F -5.1 °F 49% 30.25 in 10.0 mi WNW 12.7 mph - N/A   Partly Cloudy
5:53 PM 10.0 °F -0.9 °F -2.9 °F 56% 30.25 in 10.0 mi West 6.9 mph - N/A   Clear
6:53 PM 10.0 °F -5.2 °F -4.0 °F 53% 30.25 in 10.0 mi West 12.7 mph - N/A   Scattered Clouds
7:53 PM 9.0 °F -5.9 °F -2.9 °F 59% 30.24 in 10.0 mi West 11.5 mph - N/A   Scattered Clouds
8:53 PM 8.1 °F -7.7 °F -4.0 °F 58% 30.24 in 10.0 mi WNW 12.7 mph - N/A   Clear
9:53 PM 7.0 °F -9.1 °F -5.1 °F 58% 30.22 in 10.0 mi West 12.7 mph - N/A   Clear
10:53 PM 6.1 °F -11.6 °F -5.1 °F 60% 30.21 in 10.0 mi WNW 15.0 mph - N/A   Overcast
11:53 PM 6.1 °F -11.6 °F -5.1 °F 60% 30.19 in 10.0 mi WNW 15.0 mph - N/A   Overcast